This is the latest recevied weather packets stored in our database for station/object KC5DP. If no packets are shown the sender has not sent any weather packets the latest 10 day(s).
| Time | Temp. | Humidity | Pressure | Rain* | Wind** | Luminosity | Snow |
|---|---|---|---|---|---|---|---|
| 1777839155 | 25° C | 36% | 1019.1 hPa | 0 mm | - | 695 W/m² | - |
| 1777838851 | 25° C | 41% | 1019.1 hPa | 0 mm | - | 715 W/m² | - |
| 1777838548 | 25.56° C | 35% | 1019.5 hPa | 0 mm | - | 616 W/m² | - |
| 1777838245 | 25.56° C | 35% | 1019.5 hPa | 0 mm | - | 616 W/m² | - |
| 1777837942 | 25.56° C | 35% | 1019.5 hPa | 0 mm | - | 616 W/m² | - |
| 1777837639 | 24.44° C | 38% | 1019.7 hPa | 0 mm | - | 759 W/m² | - |
| 1777837335 | 24.44° C | 38% | 1019.7 hPa | 0 mm | - | 759 W/m² | - |
| 1777837031 | 24.44° C | 37% | 1019.7 hPa | 0 mm | - | 752 W/m² | - |
| 1777836727 | 25° C | 37% | 1019.9 hPa | 0 mm | - | 760 W/m² | - |
| 1777836423 | 25° C | 42% | 1019.9 hPa | 0 mm | - | 758 W/m² | - |
| 1777836118 | 24.44° C | 40% | 1020.2 hPa | 0 mm | - | 776 W/m² | - |
| 1777835815 | 24.44° C | 40% | 1020.2 hPa | 0 mm | - | 776 W/m² | - |
| 1777835512 | 25° C | 39% | 1020.2 hPa | 0 mm | - | 843 W/m² | - |
| 1777835209 | 25° C | 39% | 1020.2 hPa | 0 mm | - | 843 W/m² | - |
| 1777834906 | 24.44° C | 39% | 1020.3 hPa | 0 mm | - | 849 W/m² | - |
| 1777834603 | 23.89° C | 36% | 1020.2 hPa | 0 mm | - | 460 W/m² | - |
| 1777834298 | 24.44° C | 41% | 1020.4 hPa | 0 mm | - | 805 W/m² | - |
| 1777833993 | 24.44° C | 39% | 1020.5 hPa | 0 mm | - | 800 W/m² | - |
| 1777833690 | 23.89° C | 38% | 1020.5 hPa | 0 mm | - | 811 W/m² | - |
| 1777833386 | 24.44° C | 40% | 1020.7 hPa | 0 mm | - | 811 W/m² | - |
| 1777833084 | 23.89° C | 40% | 1020.5 hPa | 0 mm | - | 812 W/m² | - |
| 1777832782 | 24.44° C | 38% | 1020.7 hPa | 0 mm | - | 822 W/m² | - |
| 1777832480 | 23.89° C | 39% | 1020.9 hPa | 0 mm | - | 380 W/m² | - |
| 1777832177 | 23.89° C | 36% | 1020.9 hPa | 0 mm | - | 843 W/m² | - |
| 1777831873 | 23.89° C | 44% | 1020.6 hPa | 0 mm | - | 824 W/m² | - |
* Rain latest hour (hover to see other rain measurements)
** Current wind speed in m/s (hover to see current wind gust speed)